星链-5161 (STARLINK-5161 )

导读

STARLINK-5161是美国太空探索技术公司(SpaceX)于2022年10月28日发射的星链(Starlink)低轨通信卫星,属于Starlink V1.0平台,运行于近地轨道,轨道倾角约43度。作为星链全球卫星互联网项目的组成部分,它搭载Ku/Ka波段通信载荷,配备氪工质霍尔推进器,具备自主避撞能力,旨在为全球提供高速低延迟宽带服务,寿命末期会再入大气层销毁。

基本信息
目录编号:
54163
目录名称:
STARLINK-5161
国际标识:
2022-141G
轨道中心:
EARTH
卫星名称:
星链-5161
卫星全名:
星链-5161 (STARLINK-5161 )
卫星状态:
在轨 (已飞行1415 天)
发射日期:
2022-10-28 UTC
国别 :
美国 (US)
星等 :
--
该卫星已列入 空间交会检测服务 Space Conjunction Data Service (SCDS) ,当前飞行风险评估等级: 高风险
轨道信息
数据来源 国际轨道数据 AOE轨道数据
星历时间 2026-09-12T07:08:29+0800
12小时前
查看轨道信息
2026-09-10T23:00:00+0800
1天前
查看轨道信息
半长轴 6840.845km 6840.906km
偏心率 0.0001152 0.0001661
轨道倾角 53.159° 53.161°
近地点辐角 92.947° 41.029°
升交点赤经 233.621° 239.896°
平近点角 267.167° 117.329°
近地点 461.919km 461.632km
远地点 463.497km 463.906km
周期 93.848分钟 93.849分钟
每日圈数 15.343986 15.343782
详细信息
固有亮度:
5
最大亮度:
2.5
卫星平台:
Starlink v1.5
覆盖范围:
全球
运营商:
太空探索技术公司
运营商所在国:
美国
制造商(研发单位):
太空探索技术公司
制造商所在国:
美国
使用方式:
暂无
卫星简介
星链(Starlink)计划是由太空探索技术公司(SpaceX)提出的一个巨型低轨卫星互联网星座项目,计划在2019年至2024年间在太空搭建由约1.2万颗卫星组成的“星链”网络,其中1584颗将部署在地球上空550千米处的近地轨道,并从2020年开始工作。该卫星仍在工作。
2D轨道图
3D轨道图
轨道高度分析图
轨道倾角分析图
轨道综合分析图
查看轨道综合分析图
与全量物体交会距离演化趋势
与全量物体交会风险概率演化趋势